[keps] orb07095.amsat
Ray Hoad
r.hoad at att.net
Thu Apr 5 19:24:23 PDT 2007
SB KEPS @ AMSAT $ORB07095.O
Orbital Elements 07095.OSCAR
HR AMSAT ORBITAL ELEMENTS FOR OSCAR SATELLITES
FROM WA5QGD FORT WORTH,TX April 5, 2007
Send SUBSCRIBE KEPS/UNSUBSCRIBE KEPS to majordomo at amsat.org only
BID: ORB07095.O
TO ALL RADIO AMATEURS BT
Satellite: AO-07
Catalog number: 07530
Epoch time: 07094.63977211
Element set: 844
Inclination: 101.5238 deg
RA of node: 134.7908 deg
Eccentricity: 0.0012100
Arg of perigee: 039.8933 deg
Mean anomaly: 320.3027 deg
Mean motion: 12.53572688 rev/day
Decay rate: -2.8e-07 rev/day^2
Epoch rev: 48190
Checksum: 293
Satellite: AO-10
Catalog number: 14129
Epoch time: 07093.74349903
Element set: 0370
Inclination: 026.7443 deg
RA of node: 283.7549 deg
Eccentricity: 0.6056090
Arg of perigee: 011.0643 deg
Mean anomaly: 357.8642 deg
Mean motion: 02.05870816 rev/day
Decay rate: -1.29e-06 rev/day^2
Epoch rev: 17903
Checksum: 306
Satellite: UO-11
Catalog number: 14781
Epoch time: 07094.47501370
Element set: 340
Inclination: 098.1949 deg
RA of node: 115.7351 deg
Eccentricity: 0.0010117
Arg of perigee: 052.4866 deg
Mean anomaly: 307.7269 deg
Mean motion: 14.79536316 rev/day
Decay rate: -1.10e-06 rev/day^2
Epoch rev: 23883
Checksum: 297
Satellite: RS-10/11
Catalog number: 18129
Epoch time: 07094.58240754
Element set: 263
Inclination: 082.9221 deg
RA of node: 112.6351 deg
Eccentricity: 0.0012686
Arg of perigee: 011.4787 deg
Mean anomaly: 348.6653 deg
Mean motion: 13.72786030 rev/day
Decay rate: 4.1e-07 rev/day^2
Epoch rev: 99113
Checksum: 295
Satellite: RS-15
Catalog number: 23439
Epoch time: 07094.98939878
Element set: 0060
Inclination: 064.8143 deg
RA of node: 125.2971 deg
Eccentricity: 0.0161579
Arg of perigee: 203.8211 deg
Mean anomaly: 155.5174 deg
Mean motion: 11.27551716 rev/day
Decay rate: -3.9e-07 rev/day^2
Epoch rev: 50544
Checksum: 319
Satellite: FO-29
Catalog number: 24278
Epoch time: 07094.91550223
Element set: 0487
Inclination: 098.5421 deg
RA of node: 064.4238 deg
Eccentricity: 0.0349813
Arg of perigee: 273.2559 deg
Mean anomaly: 082.8624 deg
Mean motion: 13.52929052 rev/day
Decay rate: 1.9e-07 rev/day^2
Epoch rev: 52499
Checksum: 335
Satellite: SO-33
Catalog number: 25509
Epoch time: 07094.86912471
Element set: 900
Inclination: 031.4285 deg
RA of node: 280.2771 deg
Eccentricity: 0.0354982
Arg of perigee: 146.4104 deg
Mean anomaly: 215.9591 deg
Mean motion: 14.28159374 rev/day
Decay rate: 3.09e-06 rev/day^2
Epoch rev: 44076
Checksum: 314
Satellite: AO-40
Catalog number: 26609
Epoch time: 07095.88450706
Element set: 860
Inclination: 004.9917 deg
RA of node: 158.7753 deg
Eccentricity: 0.7993201
Arg of perigee: 298.1688 deg
Mean anomaly: 005.0340 deg
Mean motion: 01.25586056 rev/day
Decay rate: 6.0e-08 rev/day^2
Epoch rev: 2953
Checksum: 326
Satellite: VO-52
Catalog number: 28650
Epoch time: 07093.26471000
Element set: 0595
Inclination: 097.8368 deg
RA of node: 165.6438 deg
Eccentricity: 0.0028252
Arg of perigee: 136.0911 deg
Mean anomaly: 224.2549 deg
Mean motion: 14.81288837 rev/day
Decay rate: 1.47e-06 rev/day^2
Epoch rev: 10332
Checksum: 309
Satellite: PO-63
Catalog number: 29712
Epoch time: 07094.87325053
Element set: 0249
Inclination: 097.9285 deg
RA of node: 155.0334 deg
Eccentricity: 0.0014494
Arg of perigee: 012.3744 deg
Mean anomaly: 347.7835 deg
Mean motion: 14.79619930 rev/day
Decay rate: 8.21e-06 rev/day^2
Epoch rev: 01249
Checksum: 325
/EX
SB KEPS @ AMSAT $ORB07095.D
Orbital Elements 07095.MICROS
HR AMSAT ORBITAL ELEMENTS FOR THE MICROSATS
FROM WA5QGD FORT WORTH,TX April 5, 2007
Send SUBSCRIBE KEPS/UNSUBSCRIBE KEPS to majordomo at amsat.org only
BID: ORB07095.D
TO ALL RADIO AMATEURS BT
Satellite: AO-16
Catalog number: 20439
Epoch time: 07094.50219479
Element set: 0004
Inclination: 098.1946 deg
RA of node: 093.1254 deg
Eccentricity: 0.0011849
Arg of perigee: 049.1143 deg
Mean anomaly: 311.1069 deg
Mean motion: 14.31755373 rev/day
Decay rate: 3.5e-07 rev/day^2
Epoch rev: 89800
Checksum: 296
Satellite: LO-19
Catalog number: 20442
Epoch time: 07094.48314269
Element set: 0930
Inclination: 098.1812 deg
RA of node: 102.5482 deg
Eccentricity: 0.0012788
Arg of perigee: 048.8619 deg
Mean anomaly: 311.3674 deg
Mean motion: 14.31996189 rev/day
Decay rate: -1.7e-07 rev/day^2
Epoch rev: 89814
Checksum: 330
Satellite: AO-27
Catalog number: 22825
Epoch time: 07094.47855726
Element set: 654
Inclination: 098.3236 deg
RA of node: 067.5992 deg
Eccentricity: 0.0009259
Arg of perigee: 117.5750 deg
Mean anomaly: 242.6353 deg
Mean motion: 14.29203797 rev/day
Decay rate: -5.3e-07 rev/day^2
Epoch rev: 70496
Checksum: 342
Satellite: IO-26
Catalog number: 22826
Epoch time: 07094.46855669
Element set: 350
Inclination: 098.3168 deg
RA of node: 068.6920 deg
Eccentricity: 0.0009625
Arg of perigee: 113.4383 deg
Mean anomaly: 246.7814 deg
Mean motion: 14.29449880 rev/day
Decay rate: 2.2e-07 rev/day^2
Epoch rev: 70504
Checksum: 328
Satellite: PO-28
Catalog number: 22829
Epoch time: 07094.46059259
Element set: 0629
Inclination: 098.3060 deg
RA of node: 069.8611 deg
Eccentricity: 0.0010696
Arg of perigee: 089.3341 deg
Mean anomaly: 270.9100 deg
Mean motion: 14.30149144 rev/day
Decay rate: 2.9e-07 rev/day^2
Epoch rev: 70527
Checksum: 310
Satellite: GO-32
Catalog number: 25397
Epoch time: 07093.63370224
Element set: 0269
Inclination: 098.4233 deg
RA of node: 144.0804 deg
Eccentricity: 0.0002152
Arg of perigee: 087.4505 deg
Mean anomaly: 272.6908 deg
Mean motion: 14.23121981 rev/day
Decay rate: -1.67e-06 rev/day^2
Epoch rev: 45355
Checksum: 296
Satellite: MO-46
Catalog number: 26548
Epoch time: 07094.34993320
Element set: 0763
Inclination: 064.5565 deg
RA of node: 051.0863 deg
Eccentricity: 0.0024095
Arg of perigee: 207.0748 deg
Mean anomaly: 152.9105 deg
Mean motion: 14.83118357 rev/day
Decay rate: 8.2e-07 rev/day^2
Epoch rev: 35259
Checksum: 315
Satellite: NO-44
Catalog number: 26931
Epoch time: 07093.64432325
Element set: 0556
Inclination: 067.0551 deg
RA of node: 339.5096 deg
Eccentricity: 0.0006819
Arg of perigee: 274.8178 deg
Mean anomaly: 085.2155 deg
Mean motion: 14.29477341 rev/day
Decay rate: -1.99e-06 rev/day^2
Epoch rev: 28744
Checksum: 336
Satellite: SO-50
Catalog number: 27607
Epoch time: 07094.10097886
Element set: 281
Inclination: 064.5592 deg
RA of node: 309.9673 deg
Eccentricity: 0.0045601
Arg of perigee: 022.6433 deg
Mean anomaly: 337.6682 deg
Mean motion: 14.71243612 rev/day
Decay rate: -5.3e-07 rev/day^2
Epoch rev: 23022
Checksum: 296
Satellite: CO-55
Catalog number: 27844
Epoch time: 07094.49770136
Element set: 0998
Inclination: 098.7204 deg
RA of node: 103.8021 deg
Eccentricity: 0.0009333
Arg of perigee: 308.7128 deg
Mean anomaly: 051.3226 deg
Mean motion: 14.20501570 rev/day
Decay rate: 7.0e-07 rev/day^2
Epoch rev: 19501
Checksum: 288
Satellite: CO-57
Catalog number: 27848
Epoch time: 07094.01578191
Element set: 0960
Inclination: 098.7196 deg
RA of node: 102.5487 deg
Eccentricity: 0.0009341
Arg of perigee: 313.2002 deg
Mean anomaly: 046.8388 deg
Mean motion: 14.20321910 rev/day
Decay rate: 5.6e-07 rev/day^2
Epoch rev: 19492
Checksum: 310
Satellite: AO-51
Catalog number: 28375
Epoch time: 07094.17911412
Element set: 0785
Inclination: 098.1228 deg
RA of node: 137.2828 deg
Eccentricity: 0.0085193
Arg of perigee: 046.8255 deg
Mean anomaly: 314.0015 deg
Mean motion: 14.40560989 rev/day
Decay rate: 1.6e-07 rev/day^2
Epoch rev: 14506
Checksum: 308
Satellite: CO-56
Catalog number: 28941
Epoch time: 07094.76515450
Element set: 0401
Inclination: 098.1364 deg
RA of node: 147.8170 deg
Eccentricity: 0.0238089
Arg of perigee: 172.3333 deg
Mean anomaly: 188.1723 deg
Mean motion: 15.36695548 rev/day
Decay rate: 3.4382e-04 rev/day^2
Epoch rev: 06214
Checksum: 327
Satellite: HO-59
Catalog number: 29484
Epoch time: 07094.76660533
Element set: 256
Inclination: 098.2958 deg
RA of node: 133.6638 deg
Eccentricity: 0.0229543
Arg of perigee: 167.9501 deg
Mean anomaly: 192.7563 deg
Mean motion: 15.45229759 rev/day
Decay rate: 5.8647e-04 rev/day^2
Epoch rev: 2971
Checksum: 374
Satellite: NO-60
Catalog number: 29661
Epoch time: 07095.10047394
Element set: 156
Inclination: 051.6378 deg
RA of node: 113.2300 deg
Eccentricity: 0.0012581
Arg of perigee: 055.3750 deg
Mean anomaly: 304.7830 deg
Mean motion: 15.96472677 rev/day
Decay rate: 1.27604e-03 rev/day^2
Epoch rev: 1670
Checksum: 293
Satellite: NO-61
Catalog number: 29664
Epoch time: 07094.92255413
Element set: 0119
Inclination: 051.6307 deg
RA of node: 117.2780 deg
Eccentricity: 0.0016583
Arg of perigee: 055.1973 deg
Mean anomaly: 305.0571 deg
Mean motion: 15.87032094 rev/day
Decay rate: 3.9920e-04 rev/day^2
Epoch rev: 01650
Checksum: 300
/EX
SB KEPS @ AMSAT $ORB07095.W
Orbital Elements 07095.WEATHER
HR AMSAT ORBITAL ELEMENTS FOR WEATHER SATELLITES
FROM WA5QGD FORT WORTH,TX April 5, 2007
Send SUBSCRIBE KEPS/UNSUBSCRIBE KEPS to majordomo at amsat.org only
BID: ORB07095.W
TO ALL RADIO AMATEURS BT
Satellite: NOAA-10
Catalog number: 16969
Epoch time: 07094.62707883
Element set: 0610
Inclination: 098.7507 deg
RA of node: 111.7504 deg
Eccentricity: 0.0012899
Arg of perigee: 025.6306 deg
Mean anomaly: 334.5513 deg
Mean motion: 14.27321827 rev/day
Decay rate: 1.05e-06 rev/day^2
Epoch rev: 06873
Checksum: 307
Satellite: NOAA-11
Catalog number: 19531
Epoch time: 07094.86694873
Element set: 609
Inclination: 098.8100 deg
RA of node: 184.9467 deg
Eccentricity: 0.0010997
Arg of perigee: 237.8685 deg
Mean anomaly: 122.1423 deg
Mean motion: 14.14841532 rev/day
Decay rate: 2.50e-06 rev/day^2
Epoch rev: 95578
Checksum: 336
Satellite: NOAA-12
Catalog number: 21263
Epoch time: 07095.79773428
Element set: 102
Inclination: 098.7520 deg
RA of node: 093.1628 deg
Eccentricity: 0.0012368
Arg of perigee: 321.4684 deg
Mean anomaly: 038.6087 deg
Mean motion: 14.25526089 rev/day
Decay rate: 4.5e-07 rev/day^2
Epoch rev: 82597
Checksum: 321
